When you browse on this site, cookies collect data to enhance your experience and personalize the content and advertising you see.
Visit our Privacy Policy to learn more. By continuing to use the site, you agree to this use of cookies and data.
  • In Sweden
  • List of Countries
  • For 7 days
  • Water Temperature
  • Satellite Maps
  • Weather Map
  • Weather Widgets
  • user-avatar
    Login

    Hourly Weather Garmisch-Partenkirchen

    Today, 19 November, Monday

    Time Temperature Precipitation Wind Pressure Humidity
    00:00 -1°C° 0.1 mm 1 mps 671 mmHg 88%
    01:00 -3°C° 0 mm 2 mps 671 mmHg 90%
    02:00 -3°C° 0.2 mm 2 mps 671 mmHg 90%
    03:00 -3°C° 0.2 mm 2 mps 670 mmHg 90%
    04:00 -3°C° 0.2 mm 2 mps 670 mmHg 90%
    05:00 -3°C° 0.3 mm 2 mps 670 mmHg 90%
    06:00 -4°C° 0.3 mm 2 mps 669 mmHg 90%
    07:00 -4°C° 0 mm 2 mps 669 mmHg 91%
    08:00 -3°C° 0.2 mm 2 mps 668 mmHg 87%
    09:00 -3°C° 0.2 mm 2 mps 668 mmHg 84%
    10:00 -3°C° 0.2 mm 2 mps 668 mmHg 81%
    11:00 -2°C° 0.1 mm 3 mps 668 mmHg 77%
    12:00 -1°C° 0.1 mm 3 mps 668 mmHg 73%
    13:00 -1°C° 0.1 mm 3 mps 667 mmHg 69%
    14:00 -1°C° 0 mm 3 mps 667 mmHg 72%
    15:00 -2°C° 0 mm 3 mps 667 mmHg 74%
    16:00 -2°C° 0 mm 2 mps 667 mmHg 77%
    17:00 -3°C° 0 mm 2 mps 666 mmHg 80%
    18:00 -3°C° 0 mm 2 mps 666 mmHg 83%
    19:00 -4°C° 0 mm 2 mps 666 mmHg 86%
    20:00 -4°C° 0 mm 2 mps 666 mmHg 84%
    21:00 -4°C° 0 mm 2 mps 666 mmHg 82%
    22:00 -5°C° 0 mm 2 mps 666 mmHg 81%
    23:00 -4°C° 0 mm 2 mps 665 mmHg 79%

    Tomorrow, 20 November, Tuesday

    Time Temperature Precipitation Wind Pressure Humidity
    00:00 -4°C° 0 mm 2 mps 665 mmHg 78%
    01:00 -4°C° 0 mm 2 mps 665 mmHg 76%
    02:00 -4°C° 0.1 mm 2 mps 664 mmHg 76%
    03:00 -3°C° 0.1 mm 2 mps 664 mmHg 76%
    04:00 -1°C° 0.1 mm 1 mps 664 mmHg 75%
    05:00 -1°C° 0.1 mm 1 mps 664 mmHg 76%
    06:00 -1°C° 0.1 mm 1 mps 663 mmHg 76%
    07:00 -1°C° 0.1 mm 1 mps 663 mmHg 77%
    08:00 +1°C° 0 mm 1 mps 664 mmHg 72%
    09:00 +2°C° 0 mm 1 mps 664 mmHg 68%
    10:00 +3°C° 0 mm 1 mps 665 mmHg 63%
    11:00 +4°C° 0 mm 1 mps 665 mmHg 61%
    12:00 +5°C° 0 mm 1 mps 665 mmHg 59%
    13:00 +6°C° 0 mm 1 mps 665 mmHg 57%
    14:00 +5°C° 0 mm 1 mps 665 mmHg 63%
    15:00 +4°C° 0 mm 1 mps 665 mmHg 70%
    16:00 +3°C° 0 mm 1 mps 665 mmHg 77%
    17:00 +2°C° 0 mm 1 mps 666 mmHg 80%
    18:00 +1°C° 0 mm 1 mps 666 mmHg 82%
    19:00 -2°C° 0 mm 2 mps 667 mmHg 85%
    20:00 -2°C° 0 mm 2 mps 667 mmHg 83%
    21:00 -2°C° 0 mm 2 mps 668 mmHg 82%
    22:00 -2°C° 0 mm 2 mps 668 mmHg 80%
    23:00 -2°C° 0 mm 2 mps 668 mmHg 79%

    Day after tomorrow, 21 November, Wednesday

    Time Temperature Precipitation Wind Pressure Humidity
    00:00 0°C° 0 mm 1 mps 669 mmHg 78%
    01:00 0°C° 0 mm 1 mps 669 mmHg 76%
    02:00 0°C° 0 mm 1 mps 669 mmHg 75%
    03:00 0°C° 0 mm 1 mps 669 mmHg 74%
    04:00 0°C° 0 mm 1 mps 669 mmHg 72%
    05:00 0°C° 0 mm 1 mps 669 mmHg 71%
    06:00 0°C° 0 mm 1 mps 670 mmHg 71%
    07:00 0°C° 0 mm 1 mps 670 mmHg 70%
    08:00 +2°C° 0 mm 1 mps 670 mmHg 66%
    09:00 +4°C° 0 mm 1 mps 671 mmHg 61%
    10:00 +6°C° 0 mm 1 mps 671 mmHg 57%
    11:00 +7°C° 0 mm 1 mps 671 mmHg 56%
    12:00 +7°C° 0 mm 2 mps 671 mmHg 56%
    13:00 +8°C° 0 mm 2 mps 671 mmHg 55%
    14:00 +6°C° 0 mm 2 mps 671 mmHg 63%
    15:00 +5°C° 0 mm 1 mps 671 mmHg 72%
    16:00 +4°C° 0 mm 1 mps 671 mmHg 80%
    17:00 +3°C° 0 mm 1 mps 671 mmHg 80%
    18:00 +2°C° 0 mm 1 mps 671 mmHg 81%
    19:00 +2°C° 0 mm 1 mps 672 mmHg 81%
    20:00 +2°C° 0 mm 1 mps 672 mmHg 80%
    21:00 +2°C° 0 mm 1 mps 672 mmHg 79%
    22:00 +2°C° 0 mm 1 mps 673 mmHg 78%
    23:00 +1°C° 0 mm 1 mps 673 mmHg 79%

    22 November, Thursday

    Time Temperature Precipitation Wind Pressure Humidity
    00:00 +1°C° 0 mm 1 mps 673 mmHg 79%
    01:00 +1°C° 0 mm 1 mps 673 mmHg 80%
    02:00 +1°C° 0 mm 1 mps 673 mmHg 80%
    03:00 +1°C° 0 mm 1 mps 673 mmHg 80%
    04:00 0°C° 0 mm 1 mps 673 mmHg 80%
    05:00 0°C° 0 mm 1 mps 673 mmHg 79%
    06:00 0°C° 0 mm 1 mps 673 mmHg 78%
    07:00 0°C° 0 mm 1 mps 674 mmHg 78%
    08:00 +2°C° 0 mm 1 mps 674 mmHg 72%
    09:00 +3°C° 0 mm 0 mps 675 mmHg 67%
    10:00 +4°C° 0 mm 0 mps 675 mmHg 62%
    11:00 +5°C° 0 mm 0 mps 675 mmHg 60%
    12:00 +7°C° 0 mm 1 mps 676 mmHg 59%
    13:00 +8°C° 0 mm 1 mps 676 mmHg 57%
    14:00 +6°C° 0 mm 1 mps 676 mmHg 66%
    15:00 +4°C° 0 mm 0 mps 675 mmHg 74%
    16:00 +3°C° 0 mm 0 mps 675 mmHg 82%
    17:00 +3°C° 0 mm 1 mps 676 mmHg 84%
    18:00 +3°C° 0 mm 1 mps 676 mmHg 86%
    19:00 +2°C° 0 mm 1 mps 676 mmHg 87%
    20:00 +2°C° 0 mm 1 mps 677 mmHg 87%
    21:00 +2°C° 0 mm 1 mps 677 mmHg 87%
    22:00 +2°C° 0 mm 1 mps 677 mmHg 86%
    23:00 +2°C° 0 mm 1 mps 677 mmHg 85%

    23 November, Friday

    Time Temperature Precipitation Wind Pressure Humidity
    00:00 +2°C° 0 mm 1 mps 678 mmHg 85%
    01:00 +2°C° 0 mm 1 mps 678 mmHg 84%
    02:00 +2°C° 0 mm 1 mps 678 mmHg 83%
    03:00 +1°C° 0 mm 1 mps 678 mmHg 83%
    04:00 +1°C° 0 mm 1 mps 678 mmHg 83%
    05:00 +1°C° 0 mm 1 mps 678 mmHg 82%
    06:00 +1°C° 0 mm 1 mps 678 mmHg 82%
    07:00 +1°C° 0 mm 1 mps 678 mmHg 81%
    08:00 +3°C° 0 mm 1 mps 679 mmHg 76%
    09:00 +4°C° 0 mm 1 mps 679 mmHg 71%
    10:00 +6°C° 0 mm 1 mps 679 mmHg 66%
    11:00 +7°C° 0 mm 1 mps 679 mmHg 63%
    12:00 +8°C° 0 mm 1 mps 679 mmHg 60%
    13:00 +9°C° 0 mm 1 mps 679 mmHg 58%
    14:00 +8°C° 0 mm 1 mps 678 mmHg 65%
    15:00 +6°C° 0 mm 1 mps 678 mmHg 72%
    16:00 +5°C° 0 mm 1 mps 677 mmHg 79%
    17:00 +3°C° 0 mm 2 mps 677 mmHg 80%
    18:00 +3°C° 0 mm 2 mps 677 mmHg 81%
    19:00 +2°C° 0 mm 2 mps 678 mmHg 82%
    20:00 +2°C° 0 mm 2 mps 677 mmHg 81%
    21:00 +2°C° 0 mm 2 mps 677 mmHg 80%
    22:00 +2°C° 0 mm 2 mps 677 mmHg 79%
    23:00 +2°C° 0 mm 2 mps 677 mmHg 79%

    24 November, Saturday

    Time Temperature Precipitation Wind Pressure Humidity
    00:00 +2°C° 0 mm 2 mps 676 mmHg 79%
    01:00 +2°C° 0 mm 2 mps 676 mmHg 78%
    02:00 +2°C° 0 mm 2 mps 676 mmHg 78%
    03:00 +3°C° 0 mm 2 mps 675 mmHg 77%
    04:00 +3°C° 0 mm 2 mps 675 mmHg 77%
    05:00 +3°C° 0.1 mm 2 mps 675 mmHg 78%
    06:00 +3°C° 0.1 mm 2 mps 675 mmHg 79%
    07:00 +3°C° 0.1 mm 2 mps 675 mmHg 80%
    08:00 +4°C° 0 mm 2 mps 675 mmHg 77%
    09:00 +5°C° 0 mm 2 mps 676 mmHg 75%
    10:00 +6°C° 0 mm 2 mps 676 mmHg 73%
    11:00 +7°C° 0 mm 2 mps 676 mmHg 72%
    12:00 +8°C° 0 mm 2 mps 676 mmHg 72%
    13:00 +8°C° 0 mm 3 mps 676 mmHg 71%
    14:00 +7°C° 0 mm 2 mps 676 mmHg 78%
    15:00 +6°C° 0 mm 2 mps 676 mmHg 84%
    16:00 +6°C° 0 mm 1 mps 676 mmHg 91%
    17:00 +6°C° 0.1 mm 1 mps 676 mmHg 92%
    18:00 +5°C° 0.1 mm 1 mps 676 mmHg 94%
    19:00 +5°C° 0.1 mm 1 mps 676 mmHg 95%
    20:00 +4°C° 0 mm 1 mps 676 mmHg 95%
    21:00 +4°C° 0 mm 1 mps 676 mmHg 95%
    22:00 +4°C° 0 mm 1 mps 676 mmHg 94%
    23:00 +4°C° 0 mm 1 mps 676 mmHg 94%
    Show more